Theta_e
311 311 311 311 310 308 308 308 304 319 321 306 305 303 306 306 311 317 315 315 313 314 313 312 312 312 314 318 318 313 316 314 310 311 316 317 316 313 313 307 308 310 308 309
311 311 311 310 310 309 307 304 307 318 318 302 303 307 306 309 310 312 312 311 314 316 314 311 313 314 318 318 317 316 317 311 306 310 313 315 313 315 315 315 314 310 307 309
311 311 311 311 310 310 307 306 304 308 313 311 308 307 305 305 311 311 312 312 315 313 313 316 314 313 316 318 317 327 318 313 310 306 310 314 310 312 314 314 309 310 310 312
311 311 311 311 311 310 308 307 305 313 308 307 307 310 309 305 306 310 312 311 311 311 311 313 313 316 316 316 313 317 316 310 312 312 314 314 313 311 312 312 312 309 312 312
311 311 311 311 311 309 308 304 306 310 308 311 311 305 308 307 307 309 307 307 310 311 312 315 312 315 316 315 317 316 316 311 313 310 312 313 310 312 313 313 313 312 313 313
310 310 310 311 310 308 308 309 309 305 303 306 307 309 309 309 311 311 312 311 310 309 312 318 321 321 321 320 317 316 315 313 312 308 312 311 307 311 312 312 314 314 310 316
310 310 310 311 311 309 309 309 307 302 299 303 306 308 310 309 311 310 312 314 314 316 322 321 321 319 320 321 320 320 316 318 315 309 311 302 313 318 317 314 315 318 317 318
310 310 310 310 311 310 309 310 306 304 300 304 305 307 309 311 312 311 314 315 319 323 319 312 310 311 313 316 319 320 320 317 311 307 306 311 313 316 315 313 313 318 317 320
309 310 310 311 311 310 309 310 311 306 302 302 306 307 309 308 309 310 313 318 321 320 314 309 305 304 309 308 311 319 318 321 314 310 305 302 313 319 319 318 309 321 320 319
309 309 309 309 310 310 308 307 312 306 302 306 307 304 307 312 312 310 313 315 316 320 311 306 305 305 311 306 307 310 310 313 309 308 306 310 318 319 320 307 312 323 321 322
308 309 309 309 310 310 308 306 312 305 303 306 308 308 307 309 310 309 314 313 314 313 309 308 308 307 309 309 312 311 310 308 306 308 305 303 321 319 312 323 327 326 324 325
307 308 308 309 309 310 309 304 309 309 303 304 309 310 311 311 310 309 312 312 316 315 311 312 312 309 313 312 306 318 309 314 310 314 312 324 323 325 328 328 327 325 325 324
307 307 308 308 309 310 308 305 307 305 300 302 304 304 310 311 311 312 306 313 313 317 316 316 315 312 314 308 309 313 316 318 314 314 319 319 322 324 324 325 324 322 322 321
307 307 308 308 309 309 308 305 307 306 302 296 303 310 308 312 312 311 310 311 316 314 315 314 314 311 317 312 313 312 315 317 314 314 319 320 319 320 321 322 322 319 320 319
306 306 307 308 309 309 308 309 308 310 301 298 301 306 308 311 311 310 310 309 310 312 312 311 310 315 315 315 314 311 316 312 310 309 319 320 320 323 322 319 318 318 316 316
306 306 307 308 308 307 306 299 310 312 309 301 298 308 307 310 310 309 310 312 311 310 308 312 313 313 313 308 307 314 316 318 318 315 320 321 320 322 321 317 317 315 315 315
306 306 307 307 308 307 300 299 303 307 312 302 300 300 307 310 310 309 310 312 312 311 309 307 307 309 308 308 305 311 314 313 314 315 314 312 313 313 316 315 314 315 314 315
305 307 307 307 307 306 303 308 306 307 306 305 299 301 302 309 305 304 310 307 310 309 309 309 306 307 306 302 309 311 311 310 310 311 312 312 313 314 314 314 314 313 313 314
307 307 307 307 305 300 305 309 308 310 306 301 302 297 297 308 306 308 307 309 302 310 304 304 305 302 300 305 306 306 308 309 310 310 311 313 313 314 314 314 315 316 316 318
307 306 301 297 303 310 308 307 303 304 305 305 302 307 300 304 305 303 304 306 304 300 303 309 303 301 307 308 309 313 312 311 311 311 311 313 314 316 317 318 318 318 317 318
306 300 299 311 309 309 303 298 299 301 298 302 306 305 300 309 302 302 309 302 304 298 303 301 301 301 305 309 309 315 314 315 315 316 317 317 317 316 317 318 319 318 318 318
305 306 309 311 305 301 297 296 299 299 297 303 302 304 307 306 311 306 306 303 304 296 308 302 297 305 312 312 312 313 315 316 317 318 319 319 320 320 320 320 319 321 322 323
310 307 301 302 298 291 292 290 295 295 303 305 306 302 306 306 308 307 304 297 298 308 300 298 303 311 312 314 315 314 317 318 318 318 318 320 320 319 318 318 321 323 322 323
302 298 287 295 292 297 299 299 299 305 308 307 305 303 304 308 302 306 297 303 304 295 293 295 303 312 312 316 317 318 317 318 318 318 319 318 317 317 318 319 319 320 322 324
299 299 291 296 303 303 304 306 306 306 312 305 304 304 305 302 300 302 301 296 293 296 298 305 310 315 316 317 317 318 318 319 319 320 317 317 317 317 316 317 317 319 320 321
302 299 295 302 302 303 303 304 305 310 309 308 306 304 299 298 301 297 296 295 295 302 308 312 318 317 317 317 317 319 320 320 320 318 318 318 317 316 313 314 312 313 316 317
298 297 304 302 302 302 305 304 305 310 308 305 305 297 297 305 300 296 302 300 303 307 308 310 314 315 315 317 320 320 320 320 321 320 320 318 316 315 315 312 313 311 307 306
Wind_Speed
14 15 17 18 21 24 14 7 9 7 10 12 12 18 28 22 26 17 17 19 19 17 21 24 25 24 24 19 24 26 22 11 13 21 18 20 20 21 19 11 12 7 12 2
15 14 15 16 17 14 10 7 11 9 10 11 16 21 25 27 24 18 18 21 16 17 15 19 23 25 22 16 24 23 20 16 14 17 15 11 13 18 17 16 13 11 8 5
15 14 13 14 15 12 9 7 7 9 10 15 22 18 23 25 26 17 22 20 22 15 15 17 13 24 16 17 17 4 18 18 18 15 15 16 20 19 16 17 11 12 13 13
14 14 12 14 16 14 8 7 8 6 6 15 19 20 16 23 22 18 22 17 19 17 16 18 18 19 17 15 10 12 18 20 19 22 18 19 21 22 20 18 16 15 13 14
14 13 13 13 14 18 8 9 7 8 14 15 14 17 17 18 23 22 17 21 20 21 19 17 14 21 16 18 17 16 19 12 20 20 19 20 11 16 18 19 19 16 17 17
13 13 12 11 12 10 8 7 10 7 11 12 12 13 17 21 20 17 16 15 21 21 22 17 11 10 13 14 17 20 19 15 15 18 17 16 14 17 18 17 16 14 16 13
13 12 12 10 9 7 9 9 7 8 12 15 12 18 15 25 16 15 9 8 12 4 6 7 11 16 10 7 19 19 19 16 13 15 19 19 9 5 10 18 12 12 6 5
13 13 12 11 8 7 9 9 7 10 12 15 11 6 11 13 6 7 12 7 6 5 7 10 11 12 8 12 9 11 16 15 13 14 17 12 13 5 10 11 11 7 8 7
13 13 13 13 8 7 9 9 6 7 10 6 13 12 7 10 11 15 17 2 5 7 9 10 18 18 14 16 10 9 12 10 13 11 16 21 6 9 4 3 11 6 2 4
11 11 11 10 10 6 6 10 5 7 10 14 7 6 9 7 10 10 14 10 9 11 12 13 15 16 21 20 22 12 13 11 16 14 13 12 9 10 7 11 2 7 3 3
9 9 11 11 12 8 7 8 3 8 9 15 11 9 9 7 7 9 8 5 9 8 13 14 12 9 17 21 17 20 15 16 15 14 16 20 14 11 10 9 9 9 6 5
9 11 11 12 10 9 6 9 5 5 8 11 16 14 14 10 8 9 9 7 6 8 7 11 10 8 4 9 13 6 10 6 8 7 3 9 8 11 10 8 11 7 5 5
11 9 10 9 9 8 9 7 8 5 8 12 13 11 13 10 10 7 7 5 8 2 6 9 3 5 3 7 13 11 8 2 5 4 9 9 10 9 8 7 8 6 3 3
11 10 11 7 7 8 9 7 7 4 6 6 6 2 6 2 5 7 8 10 10 8 6 7 5 5 2 8 4 9 7 9 7 4 6 7 4 6 7 7 5 2 1 2
9 8 8 7 6 6 9 8 8 6 6 7 6 3 3 9 6 7 8 4 7 5 4 5 6 4 3 5 8 6 6 2 6 4 9 8 5 8 6 5 4 2 4 7
8 7 7 6 6 7 6 5 4 3 4 6 5 7 4 5 6 7 9 6 3 3 6 2 3 5 5 6 6 8 5 8 9 9 7 7 7 3 5 3 5 7 8 9
6 7 7 6 6 7 4 5 3 8 3 6 6 6 6 2 8 7 7 6 4 4 2 3 5 3 4 6 9 4 4 8 8 5 2 4 4 6 7 7 5 7 11 11
7 8 5 5 6 10 8 7 11 6 7 5 6 4 7 6 5 5 5 6 5 5 4 3 5 3 2 5 6 9 6 4 1 7 6 6 6 6 8 9 11 13 13 13
7 3 3 4 4 4 2 9 7 6 5 7 4 6 7 5 6 7 5 4 6 4 5 6 3 6 6 5 7 5 3 4 2 3 7 8 7 9 10 11 12 12 12 13
5 4 4 5 3 9 7 6 5 7 7 6 7 3 6 6 6 6 6 5 5 6 7 4 5 8 8 10 6 2 2 4 6 7 8 9 6 7 7 9 10 10 11 11
4 2 2 1 5 4 3 5 6 4 5 6 1 5 5 2 5 6 2 3 3 4 5 5 5 6 11 5 3 1 5 5 6 6 8 10 11 11 12 11 10 10 10 10
4 3 4 3 4 4 4 4 4 6 2 3 6 6 4 4 4 1 2 2 1 2 3 3 5 6 9 7 5 4 5 5 5 6 8 10 12 12 12 10 9 10 8 8
5 4 3 3 4 1 5 9 5 4 3 4 4 7 5 4 4 1 3 4 4 2 4 5 2 9 7 3 3 4 5 6 7 8 4 4 8 3 6 7 7 10 10 13
3 2 3 2 1 3 3 5 6 5 2 2 5 2 5 2 5 1 3 2 1 4 5 6 5 9 5 2 4 6 8 7 6 2 2 3 3 5 6 6 6 8 8 9
3 2 2 2 1 4 2 5 4 6 1 3 6 5 3 6 4 4 1 5 6 5 4 5 10 6 2 1 6 7 6 4 3 3 4 3 4 3 3 6 6 6 5 6
2 2 3 2 2 3 6 5 4 3 4 4 2 2 3 6 4 5 7 5 4 6 8 5 2 2 4 5 7 6 3 5 5 5 4 4 5 6 5 5 7 7 7 6
2 3 2 4 7 7 6 4 4 6 4 1 3 4 3 4 3 2 6 7 7 8 9 10 15 14 9 8 6 4 5 5 6 6 7 9 7 6 4 7 7 8 8 7
Wind_Direction
319 321 323 329 331 333 314 290 248 123 179 207 217 223 230 231 226 225 235 272 280 255 222 216 210 214 214 200 215 201 226 209 235 187 204 228 221 211 231 237 227 268 299 57
312 316 320 327 330 346 318 276 288 158 217 231 227 222 235 236 232 232 238 236 245 258 264 238 218 231 215 180 216 203 204 235 211 219 187 206 239 245 220 220 254 252 246 181
307 310 315 323 323 334 307 274 259 203 200 257 273 249 217 229 232 232 236 233 240 231 247 253 234 215 207 180 214 140 202 222 234 224 198 201 208 234 234 252 225 229 226 239
301 307 311 316 317 317 293 245 256 27 235 219 236 249 248 224 221 210 243 237 243 236 234 230 217 236 169 191 142 193 215 221 221 243 252 214 201 207 225 222 241 259 272 287
292 297 307 312 316 317 246 291 328 345 293 289 285 233 246 251 224 221 213 233 224 237 249 245 211 238 181 192 172 214 212 212 235 245 238 257 239 255 214 223 227 243 257 262
292 294 298 309 316 321 290 340 293 264 288 263 246 243 237 239 254 223 225 216 226 240 223 259 325 308 231 185 192 212 205 223 211 236 231 240 244 248 256 258 261 234 252 277
293 291 292 303 305 305 303 294 304 273 268 257 249 242 258 231 240 248 218 220 268 44 340 276 263 273 265 253 182 210 207 215 221 235 233 228 238 256 299 245 260 271 280 300
281 282 286 291 290 296 287 301 279 283 276 275 267 265 267 277 216 252 279 180 358 310 259 227 218 232 211 220 211 238 193 203 218 242 236 228 200 198 233 247 244 250 219 252
275 276 280 283 276 288 282 279 291 276 287 256 360 305 280 258 230 224 232 125 272 260 243 209 208 211 198 199 191 256 245 220 244 232 240 255 263 124 123 159 235 127 252 225
277 273 275 278 272 260 276 294 265 277 273 273 333 269 316 286 296 254 190 182 219 229 230 224 214 216 221 214 211 181 223 213 226 236 250 238 120 125 150 208 124 114 127 134
306 289 285 277 272 253 263 293 276 282 286 300 304 302 307 308 276 301 43 208 217 203 235 231 222 225 215 223 223 202 204 228 231 238 246 240 124 156 220 91 109 117 108 94
305 304 299 284 264 253 256 269 193 249 265 304 322 296 289 291 309 322 314 343 337 5 242 236 235 241 109 248 198 117 224 267 253 333 318 97 133 72 104 124 120 113 114 108
291 300 296 289 266 235 232 293 296 269 255 271 239 245 209 227 236 265 292 79 340 13 337 310 291 281 231 191 248 168 191 342 248 195 116 106 112 114 113 119 116 109 96 51
293 285 284 270 252 229 240 267 286 268 274 279 144 99 219 187 200 210 259 313 310 275 288 281 283 245 318 254 352 246 56 157 214 162 132 122 145 144 131 109 111 131 100 349
280 284 290 273 267 237 257 260 256 251 282 323 342 160 164 190 185 221 204 210 313 314 232 233 253 324 321 265 321 217 165 203 225 270 5 178 103 170 138 159 184 239 306 303
270 281 302 278 260 231 259 252 248 220 219 276 237 94 173 168 185 201 186 189 238 315 329 307 37 37 311 268 226 248 64 69 22 33 34 54 66 80 136 239 281 293 299 305
272 284 297 278 236 249 263 340 336 336 266 246 246 163 140 178 178 173 178 184 224 266 144 294 313 142 269 269 252 62 34 62 50 26 1 241 240 239 231 247 288 285 272 271
266 277 265 234 245 267 254 232 201 278 260 268 266 101 156 203 182 161 154 186 196 186 253 128 231 165 299 271 253 299 327 1 314 255 231 269 290 286 269 260 264 272 274 273
257 220 177 218 230 232 86 124 152 216 291 293 258 180 124 189 208 98 205 189 192 94 225 224 198 215 213 202 247 242 221 221 237 311 282 270 272 279 275 269 266 270 273 276
133 189 207 209 112 132 175 171 199 199 189 229 264 357 119 220 166 175 161 207 219 185 199 100 230 245 231 186 202 196 240 281 263 263 265 267 288 295 290 280 280 288 291 286
211 233 283 152 123 207 206 233 217 149 216 193 288 326 137 211 217 149 338 174 140 245 126 228 210 214 188 182 260 42 234 226 251 265 278 282 279 273 275 276 283 287 282 275
357 270 245 218 223 197 236 211 156 241 49 167 184 167 38 107 300 131 189 218 103 256 90 243 243 100 113 152 171 189 232 239 250 280 281 289 292 294 289 278 279 277 283 273
219 225 234 186 197 220 239 176 188 144 167 135 169 163 169 150 254 27 185 206 227 61 227 220 298 111 135 158 272 262 240 246 257 271 259 326 287 265 282 296 343 338 299 289
261 349 339 242 143 277 16 11 80 61 11 211 81 110 212 84 195 141 229 159 67 228 236 214 198 138 172 171 318 295 269 257 255 121 64 328 16 32 21 8 321 309 308 312
326 347 305 347 279 205 51 251 84 67 234 282 160 210 233 186 141 225 239 163 239 218 247 65 102 125 125 255 321 299 283 248 109 135 109 82 43 28 20 7 1 337 329 331
286 257 277 118 204 163 93 63 62 48 334 271 100 305 165 218 205 180 206 229 248 45 19 34 40 221 246 290 315 305 223 142 130 97 110 87 70 72 62 46 31 27 25 42
291 282 264 11 13 34 21 39 66 1 7 271 211 222 67 319 246 237 352 20 13 350 349 347 321 294 278 290 307 212 141 116 97 98 92 87 91 119 95 74 55 77 62 48